Back to catalog

STARLINK-3344

AliveCommunicationsVLEO
NORAD 51110·PAYLOAD·🇺🇸 United States

Launched Jan 19, 2022 from Cape Canaveral Space Force Station

Loading…

Next Passes (next 24 hours)

TLE

FreshSource: CelesTrak SupGP

Epoch: Sep 14, 2026, 13:32 UTC

1 51110C 22005G   26257.56437500  .00044432  00000+0  13140-2 0  2573
2 51110  53.1580 153.3955 0000942  80.3656  93.6007 15.34338074    10

Track STARLINK-3344 in real time with AllMySat

Download on the App Store